{"data":{"norad_id":40345,"epoch":"2026-05-24T23:02:16.799424Z","epoch_age_seconds":68592,"freshness":"FRESH","line1":"1 40345U 14082A   26144.95991666  .00000000  00000+0  00000+0 0  9997","line2":"2 40345   0.0132 273.8398 0000418 241.1874 163.0465  1.00272068 41684","mean_motion":1.00272068,"eccentricity":4.18e-5,"inclination_deg":0.0132,"raan_deg":273.8398,"arg_perigee_deg":241.1874,"mean_anomaly_deg":163.0465,"bstar":0,"rev_number":4168,"period_min":1436.0928509024,"perigee_km":35784.753143724,"apogee_km":35788.278108684,"semimajor_km":42164.652626204,"source":"CELESTRAK","updated_at":"2026-05-25T13:38:13.953920Z"}}